Tracking 17844 objects as of 28-August-2016
HD Live streaming from Space Station
objects crossing your sky now

SL-12 R/B(AUX MOTOR)

Track SL-12 R/B(AUX MOTOR) now!


NORAD ID: 25053
Int'l Code: 1997-070E
Perigee: 943.8 km
Apogee: 33,218.7 km
Inclination: 45.4 °
Period: 595.7 minutes
Semi major axis: 23452 km
RCS: 0.8237 m2 (medium)
Launch date: November 12, 1997
Source: Commonwealth of Independent States (former USSR) (CIS)
Launch site: TYURATAM MISSILE AND SPACE COMPLEX (TTMTR)

Note: This is a ROCKET BODY
Your satellite tracking list
Your tracking list is empty





NASA's NSSDC Master Catalog

Two Line Element Set (TLE):
1 25053U 97070E   16241.44694146  .00000074  00000-0  23976-2 0  9990
2 25053  45.4181 215.9665 6880984  82.3831 344.8046  2.41727236165333
Source of the keplerian elements: AFSPC

N2YO: 479